Location: Brachbach
(49.1847°N, 9.7240°E)
Time: 12:36:28
(UTC+00:00)

Nimbus 7 Rocket - Pass Details

Date: 12 August 2024
Orbit: 921 x 965 km, 99.4° (Epoch: 14 September)

Event Time Altitude Azimuth Distance (km) Brightness Sun altitude
Rises 22:59:39 0° 25° (NNE) 3,590 8.3 -26.0°
Reaches altitude 10° 23:02:38 10° 40° (NE) 2,637 7.3 -26.0°
Maximum altitude 23:07:13 23° 91° (E) 1,850 5.9 -26.1°
Enters shadow 23:07:49 23° 100° (E) 1,864 5.8 -26.1°
